Location: Kitchener-Waterloo
(43.4500°N, 80.5000°W)
Time: 22:48:52
(UTC-04:00)

ISS - All Passes

Search period start: 25 April 2015 00:00
Search period end: 05 May 2015 00:00
Orbit: 395 x 402 km, 51.6° (Epoch: 25 April)

Date Brightness Start Highest point End Pass type
(mag) Time Alt. Az. Time Alt. Az. Time Alt. Az.
25 Apr - 11:50:15 10° SSE 11:51:36 12° SE 11:53:05 10° ESE daylight
25 Apr - 13:24:18 10° WSW 13:27:34 87° NNW 13:30:51 10° ENE daylight
25 Apr - 15:01:33 10° WNW 15:04:16 24° NNW 15:07:00 10° NE daylight
25 Apr - 16:38:54 10° NW 16:41:24 20° N 16:43:55 10° ENE daylight
25 Apr - 18:15:09 10° NW 18:18:19 47° NNE 18:21:29 10° ESE daylight
25 Apr - 19:51:48 10° W 19:54:32 25° SW 19:57:15 10° SSE daylight
26 Apr - 12:30:22 10° SW 12:33:31 49° SE 12:36:41 10° ENE daylight
26 Apr - 14:07:02 10° W 14:09:59 31° NNW 14:12:57 10° NE daylight
26 Apr - 15:44:37 10° NW 15:47:02 19° N 15:49:28 10° NE daylight
26 Apr - 17:21:07 10° NW 17:24:05 31° NNE 17:27:04 10° E daylight
26 Apr - 18:57:24 10° WNW 19:00:34 47° SW 19:03:41 10° SE daylight
27 Apr - 11:36:46 10° SSW 11:39:29 25° SE 11:42:16 10° E daylight
27 Apr - 13:12:34 10° WSW 13:15:43 46° NNW 13:18:53 10° NE daylight
27 Apr - 14:50:08 10° NW 14:52:39 20° N 14:55:08 10° NE daylight
27 Apr - 16:27:02 10° NW 16:29:45 24° NNE 16:32:29 10° ENE daylight
27 Apr - 18:03:10 10° WNW 18:06:27 88° NNE 18:09:42 10° ESE daylight
27 Apr - 19:41:01 10° WSW 19:42:23 12° SW 19:43:39 10° SSW daylight
28 Apr - 10:43:51 10° SSE 10:45:30 14° SE 10:47:14 10° E daylight
28 Apr - 12:18:13 10° WSW 12:21:29 80° NNW 12:24:45 10° NE daylight
28 Apr - 13:55:31 10° WNW 13:58:13 23° NNW 14:00:53 10° NE daylight
28 Apr - 15:32:49 10° NW 15:35:20 20° N 15:37:51 10° ENE daylight
28 Apr - 17:09:01 10° NW 17:12:13 50° NNE 17:15:24 10° ESE daylight
28 Apr - 18:45:45 10° W 18:48:24 23° SW 18:50:59 10° S daylight
29 Apr - 11:24:07 10° SW 11:27:16 54° SE 11:30:29 10° ENE daylight
29 Apr - 13:00:52 10° W 13:03:47 29° NNW 13:06:42 10° NE daylight
29 Apr - 14:38:25 10° NW 14:40:51 19° N 14:43:16 10° NE daylight
29 Apr - 16:14:52 10° NW 16:17:52 33° NNE 16:20:52 10° E daylight
29 Apr - 17:51:10 10° WNW 17:54:17 43° SW 17:57:23 10° SSE daylight
30 Apr - 10:30:19 10° SSW 10:33:07 28° SE 10:35:58 10° ENE daylight
30 Apr - 12:06:15 10° W 12:09:22 43° NNW 12:12:30 10° NE daylight
30 Apr - 13:43:50 10° NW 13:46:18 19° N 13:48:46 10° NE daylight
30 Apr - 15:20:39 10° NW 15:23:24 24° NNE 15:26:10 10° ENE daylight
30 Apr - 16:56:48 10° WNW 17:00:04 85° SSW 17:03:19 10° SE daylight
30 Apr - 18:35:02 10° WSW 18:35:58 11° SW 18:36:46 10° SW daylight
01 May - 09:37:08 10° SSE 09:38:59 15° SE 09:40:57 10° E daylight
01 May - 11:11:45 10° WSW 11:15:00 73° NNW 11:18:15 10° NE daylight
01 May - 12:49:06 10° WNW 12:51:45 22° NNW 12:54:23 10° NE daylight
01 May - 14:26:19 10° NW 14:28:51 20° N 14:31:23 10° ENE daylight
01 May - 16:02:30 10° NW 16:05:43 54° NNE 16:08:54 10° ESE daylight
01 May - 17:39:18 10° W 17:41:50 21° SW 17:44:20 10° S daylight
02 May - 10:17:28 10° SW 10:20:39 59° SE 10:23:52 10° ENE daylight
02 May - 11:54:18 10° W 11:57:10 28° NNW 12:00:04 10° NE daylight
02 May - 13:31:49 10° NW 13:34:14 19° N 13:36:40 10° NE daylight
02 May - 15:08:13 10° NW 15:11:14 34° NNE 15:14:16 10° E daylight
02 May - 16:44:33 10° WNW 16:47:37 39° SW 16:50:40 10° SSE daylight
03 May - 09:23:29 10° SSW 09:26:21 30° SE 09:29:16 10° ENE daylight
03 May - 10:59:32 10° W 11:02:38 40° NNW 11:05:43 10° NE daylight
03 May - 12:37:07 10° NW 12:39:34 19° N 12:42:01 10° NE daylight
03 May - 14:13:53 10° NW 14:16:39 25° NNE 14:19:26 10° ENE daylight
03 May - 15:50:01 10° WNW 15:53:16 78° SW 15:56:31 10° SE daylight
04 May - 08:30:03 10° S 08:32:05 16° SE 08:34:11 10° E daylight
04 May - 10:04:53 10° WSW 10:08:06 68° NNW 10:11:21 10° NE daylight
04 May - 11:42:16 10° WNW 11:44:52 22° N 11:47:28 10° NE daylight
04 May - 13:19:25 10° NW 13:21:58 21° N 13:24:32 10° ENE daylight
04 May - 14:55:35 10° NW 14:58:48 58° NNE 15:02:00 10° ESE daylight
04 May - 16:32:28 10° W 16:34:53 19° SW 16:37:15 10° S daylight
